DLH419 KIAD-EDDF

Flight info

Callsign DLH419
Flight time N/A
Altitude 37000
Route JCOBY4 SWANN DCT BROSS Q419 RBV Q22 FOXWD DCT WITCH DCT TOPPS DCT RIKAL/M081F400 NATW BEXET/N0465F390 DCT LIFFY UL975 WAL M16 DOLAS DCT NAVPI DCT NOLRU DCT DIXAT DIXAT1A
Aircraft A333/H-SDE3GHIJ2J3J5M1RVWXY/LB2D1

Departure

Time 2026-05-06 22:14
Airport Washington Dulles International Airport (KIAD)

Arrival

Time N/A
Airport Frankfurt Main Airport (EDDF)
Time Latitude Longitude Altitude Speed Heading
2026-05-06 21:54 38.94933 -77.45021 304 ft 0 kts 200°
2026-05-06 22:03 38.94934 -77.45020 304 ft 2 kts 200°
2026-05-06 22:03 38.94949 -77.45013 306 ft 2 kts 201°
2026-05-06 22:04 38.94964 -77.45006 304 ft 2 kts 201°
2026-05-06 22:04 38.94980 -77.44998 305 ft 2 kts 202°
2026-05-06 22:04 38.94995 -77.44989 304 ft 2 kts 205°
2026-05-06 22:04 38.95009 -77.44980 306 ft 2 kts 217°
2026-05-06 22:05 38.95019 -77.44964 305 ft 1 kts 271°
2026-05-06 22:05 38.95019 -77.44960 304 ft 0 kts 271°
2026-05-06 22:05 38.95019 -77.44962 304 ft 1 kts 271°
2026-05-06 22:05 38.95019 -77.44971 305 ft 1 kts 271°
2026-05-06 22:06 38.95020 -77.44988 304 ft 2 kts 271°
2026-05-06 22:06 38.95020 -77.45013 304 ft 3 kts 271°
2026-05-06 22:06 38.95021 -77.45045 303 ft 4 kts 271°
2026-05-06 22:06 38.95022 -77.45084 304 ft 5 kts 271°
2026-05-06 22:07 38.95023 -77.45130 304 ft 6 kts 271°
2026-05-06 22:07 38.95024 -77.45182 304 ft 6 kts 271°
2026-05-06 22:07 38.95025 -77.45240 306 ft 7 kts 271°
2026-05-06 22:07 38.95027 -77.45305 304 ft 8 kts 271°
2026-05-06 22:08 38.95028 -77.45375 307 ft 8 kts 271°
2026-05-06 22:08 38.95027 -77.45447 307 ft 8 kts 264°
2026-05-06 22:08 38.95023 -77.45518 304 ft 8 kts 267°
2026-05-06 22:08 38.95001 -77.45579 307 ft 7 kts 219°
2026-05-06 22:09 38.94954 -77.45602 308 ft 7 kts 191°
2026-05-06 22:09 38.94850 -77.45606 305 ft 17 kts 180°
2026-05-06 22:09 38.94730 -77.45607 305 ft 17 kts 180°
2026-05-06 22:09 38.94612 -77.45608 306 ft 17 kts 180°
2026-05-06 22:10 38.94496 -77.45609 309 ft 17 kts 180°
2026-05-06 22:10 38.94383 -77.45610 306 ft 16 kts 180°
2026-05-06 22:10 38.94272 -77.45611 307 ft 16 kts 180°
2026-05-06 22:10 38.94163 -77.45613 306 ft 16 kts 180°
2026-05-06 22:11 38.94056 -77.45614 306 ft 15 kts 180°
2026-05-06 22:11 38.93950 -77.45617 306 ft 15 kts 181°
2026-05-06 22:11 38.93847 -77.45619 306 ft 14 kts 180°
2026-05-06 22:11 38.93750 -77.45618 308 ft 13 kts 175°
2026-05-06 22:12 38.93648 -77.45530 307 ft 21 kts 138°
2026-05-06 22:12 38.93545 -77.45514 307 ft 12 kts 203°
2026-05-06 22:12 38.93455 -77.45561 305 ft 17 kts 199°
2026-05-06 22:12 38.93385 -77.45610 304 ft 3 kts 240°
2026-05-06 22:13 38.93384 -77.45666 304 ft 10 kts 282°
2026-05-06 22:13 38.93462 -77.45944 305 ft 63 kts 290°
2026-05-06 22:13 38.93688 -77.46716 308 ft 120 kts 290°
2026-05-06 22:13 38.94039 -77.47919 417 ft 160 kts 291°
2026-05-06 22:14 38.94485 -77.49325 850 ft 179 kts 289°
2026-05-06 22:14 38.95236 -77.50555 1882 ft 173 kts 315°
2026-05-06 22:14 38.96203 -77.51515 2552 ft 184 kts 320°
2026-05-06 22:14 38.97314 -77.52569 2759 ft 213 kts 320°
2026-05-06 22:15 38.98576 -77.53786 2976 ft 240 kts 320°
2026-05-06 22:15 38.99480 -77.54673 3203 ft 253 kts 320°
2026-05-06 22:15 39.01389 -77.56525 4039 ft 259 kts 320°
2026-05-06 22:15 39.02868 -77.57863 4808 ft 263 kts 328°
2026-05-06 22:16 39.04641 -77.58471 5496 ft 276 kts 354°
2026-05-06 22:16 39.06585 -77.58329 6233 ft 285 kts
2026-05-06 22:16 39.08495 -77.57456 6836 ft 301 kts 28°
2026-05-06 22:16 39.09965 -77.55491 7498 ft 313 kts 60°
2026-05-06 22:17 39.10789 -77.52879 8193 ft 318 kts 72°
2026-05-06 22:17 39.11433 -77.50136 8874 ft 323 kts 73°
2026-05-06 22:17 39.12062 -77.47340 9537 ft 328 kts 73°
2026-05-06 22:17 39.12705 -77.44505 10194 ft 333 kts 73°
2026-05-06 22:18 39.13147 -77.42577 10403 ft 345 kts 73°
2026-05-06 22:18 39.13850 -77.39529 10622 ft 365 kts 73°
2026-05-06 22:18 39.14853 -77.35194 10920 ft 390 kts 73°
2026-05-06 22:18 39.15542 -77.31737 11127 ft 407 kts 83°
2026-05-06 22:19 39.15483 -77.28047 11402 ft 418 kts 102°
2026-05-06 22:19 39.15121 -77.25601 11717 ft 422 kts 105°
2026-05-06 22:19 39.14477 -77.21887 12300 ft 426 kts 105°
2026-05-06 22:19 39.13602 -77.16885 13170 ft 430 kts 105°
2026-05-06 22:20 39.12975 -77.13089 13706 ft 437 kts 104°
2026-05-06 22:20 39.12560 -77.10538 14046 ft 442 kts 104°
2026-05-06 22:20 39.11934 -77.06647 14562 ft 446 kts 104°
2026-05-06 22:20 39.11305 -77.02715 15036 ft 451 kts 104°
2026-05-06 22:21 39.10808 -76.98705 15508 ft 457 kts 95°
2026-05-06 22:21 39.10772 -76.94592 15999 ft 462 kts 89°
2026-05-06 22:21 39.10877 -76.90441 16483 ft 466 kts 88°
2026-05-06 22:21 39.10999 -76.86250 16966 ft 470 kts 87°
2026-05-06 22:22 39.11117 -76.82033 17589 ft 472 kts 87°
2026-05-06 22:22 39.11231 -76.77790 18088 ft 477 kts 87°
2026-05-06 22:22 39.11340 -76.73506 18498 ft 482 kts 88°
2026-05-06 22:22 39.11446 -76.69174 18857 ft 487 kts 88°
2026-05-06 22:23 39.11551 -76.64797 19210 ft 491 kts 88°
2026-05-06 22:23 39.11654 -76.60385 19584 ft 495 kts 88°
2026-05-06 22:23 39.11757 -76.55938 19959 ft 499 kts 88°
2026-05-06 22:23 39.11966 -76.51457 20315 ft 503 kts 83°
2026-05-06 22:24 39.12418 -76.46979 20749 ft 504 kts 80°
2026-05-06 22:24 39.12927 -76.42496 21121 ft 508 kts 80°
2026-05-06 22:24 39.13438 -76.38045 21437 ft 512 kts 80°
2026-05-06 22:24 39.13958 -76.33480 21769 ft 517 kts 80°
2026-05-06 22:25 39.14477 -76.28883 22106 ft 521 kts 80°
2026-05-06 22:25 39.14997 -76.24251 22430 ft 525 kts 80°
2026-05-06 22:25 39.15526 -76.19582 22765 ft 529 kts 80°
2026-05-06 22:25 39.16066 -76.14875 23091 ft 533 kts 80°
2026-05-06 22:26 39.16612 -76.10142 23450 ft 535 kts 80°
2026-05-06 22:26 39.17158 -76.05391 23763 ft 538 kts 80°
2026-05-06 22:26 39.17705 -76.00610 24051 ft 541 kts 80°
2026-05-06 22:26 39.18339 -75.95820 24363 ft 543 kts 74°
2026-05-06 22:27 39.19487 -75.91196 24626 ft 541 kts 62°
2026-05-06 22:27 39.21263 -75.86953 24926 ft 534 kts 49°
2026-05-06 22:27 39.23618 -75.83315 25232 ft 525 kts 37°
2026-05-06 22:27 39.26254 -75.80069 25547 ft 523 kts 34°
2026-05-06 22:28 39.28998 -75.76980 25837 ft 523 kts 32°
2026-05-06 22:28 39.31790 -75.73970 26155 ft 524 kts 31°
2026-05-06 22:28 39.34616 -75.70963 26463 ft 526 kts 31°
2026-05-06 22:28 39.37445 -75.67945 26796 ft 529 kts 31°
2026-05-06 22:29 39.40290 -75.64885 26983 ft 534 kts 31°
2026-05-06 22:29 39.43148 -75.61781 27293 ft 537 kts 32°
2026-05-06 22:29 39.46000 -75.58658 27593 ft 539 kts 32°
2026-05-06 22:29 39.48869 -75.55499 27893 ft 542 kts 32°
2026-05-06 22:30 39.51743 -75.52326 28186 ft 544 kts 32°
2026-05-06 22:30 39.54631 -75.49133 28472 ft 547 kts 32°
2026-05-06 22:30 39.57530 -75.45925 28780 ft 549 kts 32°
2026-05-06 22:30 39.60444 -75.42698 29020 ft 552 kts 32°
2026-05-06 22:31 39.63364 -75.39459 29409 ft 551 kts 32°
2026-05-06 22:31 39.66275 -75.36223 29862 ft 549 kts 32°
2026-05-06 22:31 39.69172 -75.33001 30209 ft 549 kts 32°
2026-05-06 22:31 39.72072 -75.29774 30516 ft 549 kts 32°
2026-05-06 22:32 39.74968 -75.26550 30864 ft 548 kts 31°
2026-05-06 22:32 39.77849 -75.23305 31224 ft 551 kts 34°
2026-05-06 22:32 39.80540 -75.19699 31546 ft 556 kts 39°
2026-05-06 22:32 39.83120 -75.16027 31872 ft 557 kts 39°
2026-05-06 22:33 39.85693 -75.12261 32184 ft 558 kts 40°
2026-05-06 22:33 39.88248 -75.08460 32496 ft 558 kts 40°
2026-05-06 22:33 39.90797 -75.04642 32810 ft 556 kts 40°
2026-05-06 22:33 39.93318 -75.00853 33352 ft 552 kts 40°
2026-05-06 22:34 39.95828 -74.97054 33573 ft 557 kts 43°
2026-05-06 22:34 39.98135 -74.92941 33768 ft 564 kts 47°
2026-05-06 22:34 40.00372 -74.88729 34028 ft 565 kts 48°
2026-05-06 22:34 40.02566 -74.84485 34279 ft 565 kts 49°
2026-05-06 22:35 40.04740 -74.80216 34517 ft 565 kts 49°
2026-05-06 22:35 40.06904 -74.75935 34752 ft 564 kts 49°
2026-05-06 22:35 40.09066 -74.71651 34951 ft 564 kts 49°
2026-05-06 22:35 40.11226 -74.67372 35210 ft 564 kts 49°
2026-05-06 22:36 40.13388 -74.63094 35369 ft 565 kts 48°
2026-05-06 22:36 40.15556 -74.58804 35544 ft 566 kts 48°
2026-05-06 22:36 40.17723 -74.54515 35763 ft 565 kts 48°
2026-05-06 22:36 40.20062 -74.50462 35978 ft 552 kts 38°
2026-05-06 22:37 40.22765 -74.46991 36165 ft 541 kts 31°
2026-05-06 22:37 40.25585 -74.43753 36398 ft 537 kts 29°
2026-05-06 22:37 40.28442 -74.40623 36609 ft 534 kts 27°
2026-05-06 22:37 40.31323 -74.37547 36842 ft 535 kts 27°
2026-05-06 22:38 40.37112 -74.31427 36839 ft 534 kts 27°
2026-05-06 22:38 40.42873 -74.25290 36831 ft 533 kts 27°
2026-05-06 22:39 40.48613 -74.19129 36862 ft 533 kts 28°
2026-05-06 22:39 40.54348 -74.12944 36823 ft 533 kts 28°
2026-05-06 22:40 40.60048 -74.06780 36837 ft 533 kts 28°
2026-05-06 22:40 40.65771 -74.00579 36894 ft 533 kts 28°
2026-05-06 22:41 40.74356 -73.91249 36823 ft 532 kts 28°
2026-05-06 22:42 40.80063 -73.85031 36817 ft 532 kts 28°
2026-05-06 22:42 40.85671 -73.78582 36841 ft 545 kts 38°
2026-05-06 22:43 40.90418 -73.70594 36822 ft 556 kts 45°